カタログに戻る

ONEWEB-0497

運用中通信PO
NORAD 54116·PAYLOAD·🇬🇧 United Kingdom

打ち上げ Oct 22, 2022 から Satish Dhawan Space Centre

Loading…

次のパス (今後24時間)

TLE

最新Source: CelesTrak SupGP

元期: Sep 14, 2026, 17:08 UTC

1 54116C 22138D   26257.71406667 -.00001363  00000+0 -34093-2 0  2574
2 54116  87.9117 287.1323 0001972  91.3559  22.9848 13.19729030    18

AllMySatでONEWEB-0497をリアルタイム追跡

Download on the App Store